GW5365 Weather Reports


time (UTC)temp
F
wind
direction
speed
knots
gust
knots
rain 1hr
in
rain 24hr
in
rain mn
in
humidity
%
barometer
mb
20260507013640 60 90 1.7 1.7 0.00 0.00 0.00 57 1010.1
20260507012640 60 270 2.6 2.6 0.00 0.00 0.00 57 1010.2
20260507011641 60 270 1.7 1.7 0.00 0.00 0.00 51 1010.2
20260507010640 61 270 0.0 0.0 0.00 0.00 0.00 51 1010.2
20260507005640 62 270 1.7 1.7 0.00 0.00 0.00 46 1010.3
20260507004641 62 270 1.7 1.7 0.00 0.00 0.00 45 1010.3
20260507003640 62 270 2.6 2.6 0.00 0.00 0.00 45 1010.2
20260507002641 62 270 0.0 0.0 0.00 0.00 0.00 44 1010.2
20260507001641 63 248 4.3 4.3 0.00 0.00 0.00 43 1010.5
20260507000640 63 292 8.7 8.7 0.00 0.00 0.00 41 1010.6
20260506235640 63 158 6.1 6.1 0.00 0.00 0.00 43 1010.3
20260506233640 63 180 4.3 4.3 0.00 0.00 0.00 42 1010.3
20260506231640 63 180 1.7 1.7 0.00 0.00 0.00 39 1010.2
20260506225640 64 180 3.5 3.5 0.00 0.00 0.00 38 1010.0
20260506224640 64 180 0.9 0.9 0.00 0.00 0.00 38 1010.0
20260506223640 64 180 1.7 1.7 0.00 0.00 0.00 38 1010.0
20260506222641 64 180 2.6 2.6 0.00 0.00 0.00 37 1010.0
20260506221640 64 158 1.7 1.7 0.00 0.00 0.00 36 1010.1
20260506220640 63 180 1.7 1.7 0.00 0.00 0.00 38 1010.1
20260506215639 63 180 2.6 2.6 0.00 0.00 0.00 38 1010.1
20260506214640 63 180 1.7 1.7 0.00 0.00 0.00 38 1010.2
20260506213641 63 202 1.7 1.7 0.00 0.00 0.00 37 1010.2
20260506212640 64 202 2.6 2.6 0.00 0.00 0.00 36 1010.2
20260506211640 65 202 1.7 1.7 0.00 0.00 0.00 35 1010.1
20260506210640 65 225 0.9 0.9 0.00 0.00 0.00 32 1009.9
20260506205641 65 248 0.0 0.0 0.00 0.00 0.00 32 1009.9
20260506204641 66 248 0.0 0.0 0.00 0.00 0.00 33 1009.8
20260506203640 67 248 0.9 0.9 0.00 0.00 0.00 29 1009.8
20260506202641 67 248 2.6 2.6 0.00 0.00 0.00 28 1009.7
20260506201640 67 248 2.6 2.6 0.00 0.00 0.00 28 1009.6
20260506200640 67 248 0.9 0.9 0.00 0.00 0.00 29 1009.5
20260506194641 68 248 1.7 1.7 0.00 0.00 0.00 29 1009.4
20260506193640 68 292 1.7 1.7 0.00 0.00 0.00 30 1009.3
20260506192640 68 270 1.7 1.7 0.00 0.00 0.00 30 1009.2
20260506191639 69 248 2.6 2.6 0.00 0.00 0.00 30 1009.0
20260506185640 70 248 1.7 1.7 0.00 0.00 0.00 30 1009.0
20260506184641 70 248 4.3 4.3 0.00 0.00 0.00 30 1009.0
20260506181640 70 292 5.2 5.2 0.00 0.00 0.00 30 1008.8
20260506180641 70 270 5.2 5.2 0.00 0.00 0.00 31 1009.0
20260506175641 70 270 5.2 5.2 0.00 0.00 0.00 30 1009.0
20260506174641 70 270 4.3 4.3 0.00 0.00 0.00 30 1009.1
20260506173640 70 270 7.8 7.8 0.00 0.00 0.00 31 1009.1
20260506171640 71 270 7.0 7.0 0.00 0.00 0.00 30 1009.2
20260506170641 71 270 7.8 7.8 0.00 0.00 0.00 30 1009.2
20260506165642 71 292 5.2 5.2 0.00 0.00 0.00 31 1009.3
20260506163640 70 315 7.0 7.0 0.00 0.00 0.00 31 1009.2
20260506161640 71 292 5.2 5.2 0.00 0.00 0.00 31 1009.3
20260506160640 71 315 6.1 6.1 0.00 0.00 0.00 31 1009.4
20260506153641 71 45 4.3 4.3 0.00 0.00 0.00 31 1009.5
20260506152640 71 292 7.0 7.0 0.00 0.00 0.00 31 1009.6
20260506151641 71 270 7.0 7.0 0.00 0.00 0.00 31 1009.6
20260506144642 71 270 8.7 8.7 0.00 0.00 0.00 33 1009.9
20260506142641 72 270 7.0 7.0 0.00 0.00 0.00 32 1010.2
20260506140640 71 315 3.5 3.5 0.00 0.00 0.00 32 1010.5
20260506134640 71 270 6.1 6.1 0.00 0.00 0.00 32 1010.5
20260506133641 70 315 2.6 2.6 0.00 0.00 0.00 32 1010.7
20260506132641 69 315 1.7 1.7 0.00 0.00 0.00 33 1010.8
20260506125641 69 292 4.3 4.3 0.00 0.00 0.00 33 1010.9
20260506124639 69 90 1.7 1.7 0.00 0.00 0.00 34 1010.8
20260506123639 69 315 7.0 7.0 0.00 0.00 0.00 33 1010.9
20260506121640 69 248 5.2 5.2 0.00 0.00 0.00 33 1011.2
20260506115640 68 338 7.0 7.0 0.00 0.00 0.00 34 1011.5
20260506114642 69 270 6.1 6.1 0.00 0.00 0.00 33 1011.6
20260506112640 67 338 5.2 5.2 0.00 0.00 0.00 33 1011.7
20260506111642 67 0 5.2 5.2 0.00 0.00 0.00 33 1011.8
20260506110642 68 292 5.2 5.2 0.00 0.00 0.00 34 1012.0
20260506105640 69 292 1.7 1.7 0.00 0.00 0.00 31 1012.1
20260506103641 67 68 0.9 0.9 0.00 0.00 0.00 35 1012.2
20260506102640 67 248 4.3 4.3 0.00 0.00 0.00 36 1012.2
20260506101641 67 292 5.2 5.2 0.00 0.00 0.00 37 1012.2
20260506100640 66 68 4.3 4.3 0.00 0.00 0.00 36 1012.4
20260506095641 65 45 1.7 1.7 0.00 0.00 0.00 38 1012.4
20260506094640 66 45 3.5 3.5 0.00 0.00 0.00 38 1012.3
20260506093640 66 68 0.9 0.9 0.00 0.00 0.00 37 1012.3
20260506091640 65 112 4.3 4.3 0.00 0.00 0.00 40 1012.4
20260506090640 66 68 1.7 1.7 0.00 0.00 0.00 42 1012.3
20260506084642 64 68 2.6 2.6 0.00 0.00 0.00 41 1012.4
20260506083641 64 90 1.7 1.7 0.00 0.00 0.00 43 1012.4
20260506082641 63 45 2.6 2.6 0.00 0.00 0.00 43 1012.3
20260506081641 63 112 2.6 2.6 0.00 0.00 0.00 44 1012.3
20260506080640 62 68 0.9 0.9 0.00 0.00 0.00 46 1012.4
20260506072641 62 90 4.3 4.3 0.00 0.00 0.00 47 1012.4
20260506071640 60 112 2.6 2.6 0.00 0.00 0.00 50 1012.4
20260506070640 59 135 4.3 4.3 0.00 0.00 0.00 52 1012.4
20260506061641 59 158 1.7 1.7 0.00 0.00 0.00 56 1012.3
20260506060640 56 180 0.0 0.0 0.00 0.00 0.00 56 1012.2
20260506050641 53 180 1.7 1.7 0.00 0.00 0.00 58 1012.1
20260506044640 54 180 0.0 0.0 0.00 0.00 0.00 58 1011.9
20260506043641 55 180 0.9 0.9 0.00 0.00 0.00 55 1012.0
20260506041640 56 180 1.7 1.7 0.00 0.00 0.00 55 1012.0
20260506040640 56 180 1.7 1.7 0.00 0.00 0.00 54 1012.0
20260506034640 57 180 0.0 0.0 0.00 0.00 0.00 50 1012.0
20260506033640 57 180 1.7 1.7 0.00 0.00 0.00 49 1012.2
20260506032641 56 180 1.7 1.7 0.00 0.00 0.00 48 1012.2
20260506031640 55 180 1.7 1.7 0.00 0.00 0.00 51 1012.3
20260506030641 56 180 1.7 1.7 0.00 0.00 0.00 53 1012.2
20260506025640 57 180 0.0 0.0 0.00 0.00 0.00 49 1012.3
20260506024640 57 180 2.6 2.6 0.00 0.00 0.00 47 1012.3
20260506023641 57 180 0.0 0.0 0.00 0.00 0.00 49 1012.2
20260506020640 58 180 0.9 0.9 0.00 0.00 0.00 49 1012.3
20260506015640 58 180 1.7 1.7 0.00 0.00 0.00 46 1012.4
20260506014640 58 180 1.7 1.7 0.00 0.00 0.00 45 1012.4